Regional Weather Roundup
Issued by NWS

Home | Current Version | Previous Version | Graphics & Text | Print | Product List | Glossary On
Versions: 1 2 3 4 5 6 7 8 9 10 11 12 13 14 15 16 17 18 19 20 21 22 23 24 25 26 27 28 29 30 31 32 33 34 35 36 37 38 39 40 41 42 43 44 45 46 47 48 49 50
000
ASUS43 KBIS 252002
RWRND

NORTH DAKOTA REGIONAL WEATHER ROUNDUP
NATIONAL WEATHER SERVICE BISMARCK ND
200 PM CST SAT FEB 25 2017

NOTE: "FAIR" INDICATES FEW OR NO CLOUDS BELOW 12,000 FEET WITH NO
SIGNIFICANT WEATHER AND/OR OBSTRUCTIONS TO VISIBILITY.


NDZ001>003-009>011-017-252100-
NORTHWEST NORTH DAKOTA

CITY           SKY/WX    TMP DP  RH WIND       PRES   REMARKS
WILLISTON      LGT SNOW  24  20  84 SW7       29.76F FOG     WCI  16
MINOT          CLOUDY    23  16  74 NW9       29.79F HAZE    WCI  13
$$

NDZ018>021-031>035-040>046-252100-
SOUTHWEST NORTH DAKOTA

CITY           SKY/WX    TMP DP  RH WIND       PRES   REMARKS
BISMARCK       PTSUNNY   28  20  71 NW5       29.84F
DICKINSON      LGT SNOW  26  18  71 SW10      29.74F WCI  16
GARRISON         N/A     26  19  74 W8        29.78F WCI  18
HETTINGER ARPT MOSUNNY   31  17  56 W14       29.79F
$$

NDZ004>008-012>016-024-026-027-054-252100-
NORTHEAST NORTH DAKOTA

CITY           SKY/WX    TMP DP  RH WIND       PRES   REMARKS
GRAND FORKS    PTSUNNY   31  17  56 NW16      29.78F WCI  20
GRND FRKS AFB  PTSUNNY   30  21  69 NW13      29.79F WCI  20
DEVILS LAKE    FAIR      22  16  78 NW13      29.78F WCI  10
$$

NDZ022-023-025-028>030-036>039-047>053-252100-
SOUTHEAST NORTH DAKOTA

CITY           SKY/WX    TMP DP  RH WIND       PRES   REMARKS
FARGO          CLOUDY    31  23  72 SW13      29.81F
JAMESTOWN      CLOUDY    26  20  77 NW13      29.79F WCI  15
$$




USA.gov is the U.S. government's official web portal to all federal, state and local government web resources and services.